Time,TemperatureF,DewpointF,PressureIn,WindDirection,WindDirectionDegrees,WindSpeedMPH,WindSpeedGustMPH,Humidity,HourlyPrecipIn,Conditions,Clouds,dailyrainin,SoftwareType,DateUTC
2013-01-24 00:10:00,47.9,46.0,30.09,NNW,346,4.0,-999.0,94,-99.99,,,0.00,weatherlink.com 1.10,2013-01-24 08:10:00,
2013-01-24 00:25:00,47.8,46.0,30.08,NW,313,9.0,-999.0,94,-99.99,,,0.00,weatherlink.com 1.10,2013-01-24 08:25:00,
2013-01-24 00:40:00,47.8,46.0,30.08,NW,322,1.0,-999.0,93,-99.99,,,0.00,weatherlink.com 1.10,2013-01-24 08:40:00,
2013-01-24 00:55:00,47.9,46.0,30.08,NNW,343,0.0,-999.0,93,-99.99,,,0.00,weatherlink.com 1.10,2013-01-24 08:55:00,
2013-01-24 01:10:00,48.4,47.0,30.09,ENE,73,0.0,-999.0,93,-99.99,,,0.00,weatherlink.com 1.10,2013-01-24 09:10:00,
2013-01-24 01:25:00,48.5,47.0,30.07,NNW,329,0.0,-999.0,93,-99.99,,,0.00,weatherlink.com 1.10,2013-01-24 09:25:00,
2013-01-24 01:40:00,48.5,47.0,30.08,NNW,348,2.0,-999.0,93,-99.99,,,0.00,weatherlink.com 1.10,2013-01-24 09:40:00,
2013-01-24 01:55:00,48.7,47.0,30.08,North,349,0.0,-999.0,93,-99.99,,,0.00,weatherlink.com 1.10,2013-01-24 09:55:00,
2013-01-24 02:10:00,48.7,47.0,30.08,North,349,0.0,-999.0,92,-99.99,,,0.00,weatherlink.com 1.10,2013-01-24 10:10:00,
2013-01-24 02:25:00,48.8,47.0,30.08,NNW,338,2.0,-999.0,92,-99.99,,,0.00,weatherlink.com 1.10,2013-01-24 10:25:00,
2013-01-24 02:40:00,48.8,47.0,30.09,ENE,63,0.0,-999.0,92,-99.99,,,0.00,weatherlink.com 1.10,2013-01-24 10:40:00,
2013-01-24 02:55:00,49.0,47.0,30.09,ENE,63,0.0,-999.0,92,-99.99,,,0.00,weatherlink.com 1.10,2013-01-24 10:55:00,
2013-01-24 03:10:00,48.8,47.0,30.09,ENE,63,0.0,-999.0,92,-99.99,,,0.00,weatherlink.com 1.10,2013-01-24 11:10:00,
2013-01-24 03:25:00,48.6,47.0,30.09,ENE,63,0.0,-999.0,93,-99.99,,,0.00,weatherlink.com 1.10,2013-01-24 11:25:00,
2013-01-24 03:40:00,49.0,47.0,30.09,South,183,0.0,-999.0,93,-99.99,,,0.00,weatherlink.com 1.10,2013-01-24 11:40:00,
2013-01-24 03:55:00,49.4,48.0,30.09,South,184,0.0,-999.0,93,-99.99,,,0.00,weatherlink.com 1.10,2013-01-24 11:55:00,
2013-01-24 04:10:00,49.7,48.0,30.08,SW,229,0.0,-999.0,92,-99.99,,,0.00,weatherlink.com 1.10,2013-01-24 12:10:00,
2013-01-24 04:25:00,50.1,48.0,30.08,SW,229,0.0,-999.0,92,-99.99,,,0.00,weatherlink.com 1.10,2013-01-24 12:25:00,
2013-01-24 04:40:00,50.2,48.0,30.09,NW,304,3.0,-999.0,92,-99.99,,,0.00,weatherlink.com 1.10,2013-01-24 12:40:00,
2013-01-24 04:55:00,50.1,48.0,30.09,NW,320,0.0,-999.0,92,-99.99,,,0.00,weatherlink.com 1.10,2013-01-24 12:55:00,
2013-01-24 05:10:00,49.8,48.0,30.09,NW,319,0.0,-999.0,92,-99.99,,,0.00,weatherlink.com 1.10,2013-01-24 13:10:00,
2013-01-24 05:25:00,49.7,48.0,30.09,NW,320,0.0,-999.0,92,-99.99,,,0.00,weatherlink.com 1.10,2013-01-24 13:25:00,
2013-01-24 05:40:00,49.7,48.0,30.09,NW,320,0.0,-999.0,92,-99.99,,,0.00,weatherlink.com 1.10,2013-01-24 13:40:00,
2013-01-24 05:55:00,49.9,48.0,30.09,NW,320,0.0,-999.0,93,-99.99,,,0.00,weatherlink.com 1.10,2013-01-24 13:55:00,
2013-01-24 06:10:00,50.1,48.0,30.10,NW,319,1.0,-999.0,92,-99.99,,,0.00,weatherlink.com 1.10,2013-01-24 14:10:00,
2013-01-24 06:25:00,50.5,48.0,30.10,NW,319,0.0,-999.0,92,-99.99,,,0.00,weatherlink.com 1.10,2013-01-24 14:25:00,
2013-01-24 06:40:00,50.9,48.0,30.10,NW,320,2.0,-999.0,91,-99.99,,,0.00,weatherlink.com 1.10,2013-01-24 14:40:00,
2013-01-24 06:55:00,51.5,49.0,30.10,NW,320,0.0,-999.0,90,-99.99,,,0.00,weatherlink.com 1.10,2013-01-24 14:55:00,
2013-01-24 07:10:00,51.7,48.0,30.11,NW,320,1.0,-999.0,88,-99.99,,,0.00,weatherlink.com 1.10,2013-01-24 15:10:00,
2013-01-24 07:25:00,51.4,48.0,30.11,NW,326,0.0,-999.0,89,-99.99,,,0.00,weatherlink.com 1.10,2013-01-24 15:25:00,
2013-01-24 07:40:00,51.1,48.0,30.11,NW,326,0.0,-999.0,89,-99.99,,,0.00,weatherlink.com 1.10,2013-01-24 15:40:00,
2013-01-24 07:55:00,50.5,48.0,30.11,NW,326,0.0,-999.0,91,-99.99,,,0.00,weatherlink.com 1.10,2013-01-24 15:55:00,
2013-01-24 08:10:00,50.5,48.0,30.11,NW,324,0.0,-999.0,92,-99.99,,,0.00,weatherlink.com 1.10,2013-01-24 16:10:00,
2013-01-24 08:25:00,50.5,48.0,30.11,NNW,329,0.0,-999.0,91,-99.99,,,0.00,weatherlink.com 1.10,2013-01-24 16:25:00,
2013-01-24 08:40:00,50.5,48.0,30.12,NNW,329,0.0,-999.0,92,-99.99,,,0.00,weatherlink.com 1.10,2013-01-24 16:40:00,
2013-01-24 08:55:00,50.0,48.0,30.13,NNW,329,0.0,-999.0,93,-99.99,,,0.00,weatherlink.com 1.10,2013-01-24 16:55:00,
2013-01-24 09:10:00,50.0,48.0,30.14,NNW,329,0.0,-999.0,93,-99.99,,,0.00,weatherlink.com 1.10,2013-01-24 17:10:00,
2013-01-24 09:25:00,49.9,48.0,30.15,NNW,329,0.0,-999.0,93,-99.99,,,0.00,weatherlink.com 1.10,2013-01-24 17:25:00,
2013-01-24 09:40:00,49.6,48.0,30.15,NNW,345,1.0,-999.0,93,-99.99,,,0.00,weatherlink.com 1.10,2013-01-24 17:40:00,
2013-01-24 09:55:00,49.9,48.0,30.16,NNW,345,0.0,-999.0,93,-99.99,,,0.00,weatherlink.com 1.10,2013-01-24 17:55:00,
2013-01-24 10:10:00,50.3,49.0,30.16,NNW,345,0.0,-999.0,94,-99.99,,,0.00,weatherlink.com 1.10,2013-01-24 18:10:00,
2013-01-24 10:25:00,51.0,49.0,30.17,NNW,345,0.0,-999.0,94,-99.99,,,0.00,weatherlink.com 1.10,2013-01-24 18:25:00,
2013-01-24 10:40:00,51.1,49.0,30.17,NNW,345,0.0,-999.0,93,-99.99,,,0.00,weatherlink.com 1.10,2013-01-24 18:40:00,
2013-01-24 10:55:00,51.2,49.0,30.17,NNW,346,0.0,-999.0,93,-99.99,,,0.00,weatherlink.com 1.10,2013-01-24 18:55:00,
2013-01-24 11:10:00,52.5,51.0,30.17,NNW,329,0.0,-999.0,93,-99.99,,,0.00,weatherlink.com 1.10,2013-01-24 19:10:00,
2013-01-24 11:25:00,52.5,50.0,30.16,ENE,72,2.0,-999.0,90,-99.99,,,0.00,weatherlink.com 1.10,2013-01-24 19:25:00,
2013-01-24 11:40:00,52.1,49.0,30.16,East,98,0.0,-999.0,90,-99.99,,,0.00,weatherlink.com 1.10,2013-01-24 19:40:00,
2013-01-24 11:55:00,52.8,50.0,30.15,ESE,103,3.0,-999.0,89,-99.99,,,0.00,weatherlink.com 1.10,2013-01-24 19:55:00,
2013-01-24 12:10:00,53.1,49.0,30.15,ESE,105,0.0,-999.0,87,-99.99,,,0.00,weatherlink.com 1.10,2013-01-24 20:10:00,
2013-01-24 12:25:00,54.4,51.0,30.14,ESE,105,0.0,-999.0,88,-99.99,,,0.00,weatherlink.com 1.10,2013-01-24 20:25:00,
2013-01-24 12:40:00,54.8,51.0,30.14,ESE,105,0.0,-999.0,86,-99.99,,,0.00,weatherlink.com 1.10,2013-01-24 20:40:00,
2013-01-24 12:55:00,55.8,51.0,30.13,ESE,106,1.0,-999.0,84,-99.99,,,0.00,weatherlink.com 1.10,2013-01-24 20:55:00,
2013-01-24 13:10:00,55.7,50.0,30.13,SE,130,2.0,-999.0,82,-99.99,,,0.00,weatherlink.com 1.10,2013-01-24 21:10:00,
2013-01-24 13:25:00,55.3,50.0,30.13,ESE,107,0.0,-999.0,83,-99.99,,,0.00,weatherlink.com 1.10,2013-01-24 21:25:00,
2013-01-24 13:40:00,54.9,50.0,30.12,ESE,109,5.0,-999.0,84,-99.99,,,0.00,weatherlink.com 1.10,2013-01-24 21:40:00,
2013-01-24 13:55:00,54.9,50.0,30.12,East,97,4.0,-999.0,84,-99.99,,,0.00,weatherlink.com 1.10,2013-01-24 21:55:00,
2013-01-24 14:10:00,55.4,50.0,30.12,East,101,1.0,-999.0,82,-99.99,,,0.00,weatherlink.com 1.10,2013-01-24 22:10:00,
2013-01-24 14:25:00,55.6,50.0,30.12,ESE,111,5.0,-999.0,81,-99.99,,,0.00,weatherlink.com 1.10,2013-01-24 22:25:00,
2013-01-24 14:40:00,55.5,50.0,30.12,ENE,58,0.0,-999.0,82,-99.99,,,0.00,weatherlink.com 1.10,2013-01-24 22:40:00,
2013-01-24 14:55:00,55.9,51.0,30.13,ESE,105,0.0,-999.0,83,-99.99,,,0.00,weatherlink.com 1.10,2013-01-24 22:55:00,
2013-01-24 15:10:00,56.2,50.0,30.13,ESE,110,4.0,-999.0,81,-99.99,,,0.00,weatherlink.com 1.10,2013-01-24 23:10:00,
2013-01-24 15:25:00,56.2,51.0,30.13,NE,51,0.0,-999.0,83,-99.99,,,0.00,weatherlink.com 1.10,2013-01-24 23:25:00,
2013-01-24 15:40:00,56.8,52.0,30.14,NE,51,0.0,-999.0,83,-99.99,,,0.00,weatherlink.com 1.10,2013-01-24 23:40:00,
2013-01-24 15:55:00,56.7,52.0,30.14,West,267,0.0,-999.0,83,-99.99,,,0.00,weatherlink.com 1.10,2013-01-24 23:55:00,
2013-01-24 16:10:00,56.7,52.0,30.14,WNW,303,0.0,-999.0,83,-99.99,,,0.00,weatherlink.com 1.10,2013-01-25 00:10:00,
2013-01-24 16:25:00,56.1,51.0,30.14,NW,304,0.0,-999.0,84,-99.99,,,0.00,weatherlink.com 1.10,2013-01-25 00:25:00,
2013-01-24 16:40:00,55.9,52.0,30.15,WNW,303,0.0,-999.0,85,-99.99,,,0.00,weatherlink.com 1.10,2013-01-25 00:40:00,
2013-01-24 16:55:00,55.3,51.0,30.15,NW,304,0.0,-999.0,86,-99.99,,,0.00,weatherlink.com 1.10,2013-01-25 00:55:00,
2013-01-24 17:10:00,54.8,51.0,30.15,NW,308,4.0,-999.0,87,-99.99,,,0.00,weatherlink.com 1.10,2013-01-25 01:10:00,
2013-01-24 17:25:00,54.4,51.0,30.15,NNW,346,0.0,-999.0,87,-99.99,,,0.00,weatherlink.com 1.10,2013-01-25 01:25:00,
2013-01-24 17:41:00,54.0,51.0,30.15,NW,317,0.0,-999.0,88,-99.99,,,0.00,weatherlink.com 1.10,2013-01-25 01:41:00,
2013-01-24 17:56:00,53.9,51.0,30.16,NW,310,0.0,-999.0,88,-99.99,,,0.00,weatherlink.com 1.10,2013-01-25 01:56:00,
2013-01-24 18:11:00,53.5,50.0,30.16,WNW,303,0.0,-999.0,88,-99.99,,,0.00,weatherlink.com 1.10,2013-01-25 02:11:00,
2013-01-24 18:26:00,53.3,50.0,30.16,NW,321,2.0,-999.0,88,-99.99,,,0.00,weatherlink.com 1.10,2013-01-25 02:26:00,
2013-01-24 18:41:00,53.2,50.0,30.17,NW,325,2.0,-999.0,88,-99.99,,,0.00,weatherlink.com 1.10,2013-01-25 02:41:00,
2013-01-24 18:56:00,53.0,50.0,30.17,NW,318,2.0,-999.0,88,-99.99,,,0.00,weatherlink.com 1.10,2013-01-25 02:56:00,
2013-01-24 19:11:00,53.1,50.0,30.17,NW,309,2.0,-999.0,88,-99.99,,,0.00,weatherlink.com 1.10,2013-01-25 03:11:00,
2013-01-24 19:26:00,52.8,49.0,30.17,NNW,329,0.0,-999.0,88,-99.99,,,0.00,weatherlink.com 1.10,2013-01-25 03:26:00,
2013-01-24 19:41:00,52.7,49.0,30.18,NW,315,1.0,-999.0,88,-99.99,,,0.00,weatherlink.com 1.10,2013-01-25 03:41:00,
2013-01-24 19:56:00,52.8,49.0,30.17,NW,315,0.0,-999.0,88,-99.99,,,0.00,weatherlink.com 1.10,2013-01-25 03:56:00,
2013-01-24 20:11:00,52.6,49.0,30.18,NW,315,0.0,-999.0,88,-99.99,,,0.00,weatherlink.com 1.10,2013-01-25 04:11:00,
2013-01-24 20:26:00,52.8,49.0,30.18,NW,311,4.0,-999.0,88,-99.99,,,0.00,weatherlink.com 1.10,2013-01-25 04:26:00,
2013-01-24 20:41:00,53.1,50.0,30.18,NW,323,0.0,-999.0,88,-99.99,,,0.00,weatherlink.com 1.10,2013-01-25 04:41:00,
2013-01-24 20:56:00,53.2,50.0,30.18,NW,315,2.0,-999.0,87,-99.99,,,0.00,weatherlink.com 1.10,2013-01-25 04:56:00,
2013-01-24 21:11:00,53.3,50.0,30.18,NW,315,2.0,-999.0,87,-99.99,,,0.00,weatherlink.com 1.10,2013-01-25 05:11:00,
2013-01-24 21:26:00,53.5,50.0,30.18,NNW,338,0.0,-999.0,86,-99.99,,,0.00,weatherlink.com 1.10,2013-01-25 05:26:00,
2013-01-24 21:41:00,53.5,50.0,30.18,NNW,329,3.0,-999.0,86,-99.99,,,0.00,weatherlink.com 1.10,2013-01-25 05:41:00,
2013-01-24 21:56:00,53.6,50.0,30.18,NNW,329,3.0,-999.0,86,-99.99,,,0.00,weatherlink.com 1.10,2013-01-25 05:56:00,
2013-01-24 22:11:00,54.0,50.0,30.18,NW,311,3.0,-999.0,85,-99.99,,,0.00,weatherlink.com 1.10,2013-01-25 06:11:00,
2013-01-24 22:26:00,54.2,50.0,30.18,NW,317,3.0,-999.0,85,-99.99,,,0.00,weatherlink.com 1.10,2013-01-25 06:26:00,
2013-01-24 22:41:00,54.3,50.0,30.19,NW,314,2.0,-999.0,86,-99.99,,,0.00,weatherlink.com 1.10,2013-01-25 06:41:00,
2013-01-24 22:56:00,54.5,50.0,30.19,NW,315,2.0,-999.0,86,-99.99,,,0.00,weatherlink.com 1.10,2013-01-25 06:56:00,
2013-01-24 23:11:00,54.6,51.0,30.20,NW,316,0.0,-999.0,86,-99.99,,,0.00,weatherlink.com 1.10,2013-01-25 07:11:00,
2013-01-24 23:26:00,54.5,50.0,30.20,NW,317,0.0,-999.0,86,-99.99,,,0.00,weatherlink.com 1.10,2013-01-25 07:26:00,
2013-01-24 23:41:00,54.5,50.0,30.20,NW,318,0.0,-999.0,86,-99.99,,,0.00,weatherlink.com 1.10,2013-01-25 07:41:00,
2013-01-24 23:56:00,54.6,51.0,30.19,NW,319,0.0,-999.0,86,-99.99,,,0.00,weatherlink.com 1.10,2013-01-25 07:56:00,